{"data":{"norad_id":44324,"intl_designator":"2019-033C","name":"RCM-2","alt_names":[],"object_type":"PAYLOAD","status":"ACTIVE","operator":null,"country":"CA","launch_date":"2019-06-12","launch_site_code":"AFWTR","launch_vehicle":null,"mission":null,"orbit_class":"UNKNOWN","rcs_meters":null,"size_class":null,"mass_kg":null,"dimensions":null,"purposes":[],"wikipedia_slug":null,"has_3d_model":false,"image_url":null,"decayed_at":null,"tle_current":{"epoch":"2026-05-24T01:05:15.319680Z","epoch_age_seconds":150737,"freshness":"FRESH","line1":"1 44324U 19033C   26144.04531620 -.00000070  00000+0 -14023-5 0  9994","line2":"2 44324  97.7596 151.8752 0001418  90.5161 269.6221 14.92588291378484","mean_motion":14.92588291,"eccentricity":0.0001418,"inclination_deg":97.7596,"raan_deg":151.8752,"arg_perigee_deg":90.5161,"mean_anomaly_deg":269.6221,"bstar":-1.4023e-6,"rev_number":37848,"period_min":96.47670484104,"perigee_km":588.88048416192,"apogee_km":590.85661053515,"semimajor_km":6968.0055473485,"source":"CELESTRAK","updated_at":"2026-05-25T13:37:55.967304Z"}}}